Weather History for Rawlins, WY

Change the Weather History Date:

Tuesday, June 18, 2013

  Actual Average Record
Temperature  
Mean Temperature 64 °F 60 °F  
Max Temperature 78 °F 76 °F 88 °F (1986)
Min Temperature 49 °F 44 °F 30 °F (1973)
Degree Days  
Heating Degree Days 1 5  
Month to date heating degree days 83 146  
Since 1 June heating degree days 83 146  
Since 1 July heating degree days 7982 8349  
Cooling Degree Days 0 1  
Month to date cooling degree days 10 2  
Year to date cooling degree days 11 2  
Since 1 June cooling degree days 10 2  
Growing Degree Days 13 (Base 50)    
Moisture  
Dew Point 36 °F    
Average Humidity 48    
Maximum Humidity 80    
Minimum Humidity 15    
Precipitation  
Precipitation 0.02 in 0.03 in 0.57 in (1993)
Month to date precipitation 0.02 0.69  
Year to date precipitation 2.09 4.61  
Sea Level Pressure  
Sea Level Pressure 29.86 in    
Wind  
Wind Speed 11 mph (ENE)    
Max Wind Speed 20 mph    
Max Gust Speed 38 mph    
Visibility 10 miles    
Events Rain , Thunderstorm    
T = Trace of Precipitation, MM = Missing Value Source: NWS Daily Summary

Daily Weather History Graph

Daily Weather History Graph

Search for Another Location

Airport:

Trip Planner

Search our weather history database for the weather conditions in past years. The results will help you decide how hot, cold, wet, or windy it might be!

Date:

Astronomy

Jun. 18, 2013 Rise Set
Actual Time 5:33 AM MDT 8:46 PM MDT
Civil Twilight 4:59 AM MDT 9:20 PM MDT
Nautical Twilight 4:15 AM MDT 10:05 PM MDT
Astronomical Twilight 3:21 AM MDT 10:58 PM MDT
Moon 3:31 PM MDT (6/18) 1:47 AM MDT (6/18)
Length of Visible Light 16h 21m
Length of Day
15h 13m
Waxing Gibbous, 71% of the Moon is Illuminated
Jun 18
Waxing Gibbous
Jun 23
Full
Jun 29
Last Quarter
Jul 8
New
Jul 15
First Quarter

Hourly Weather History & Observations

Time (MDT) Temp. Dew Point Humidity Pressure Visibility Wind Dir Wind Speed Gust Speed Precip Events Conditions
12:53 AM 57.0 °F 46.0 °F 67% 29.90 in 10.0 mi ENE 13.8 mph - N/A   Clear
1:53 AM 54.0 °F 44.1 °F 69% 29.91 in 10.0 mi NE 16.1 mph - N/A   Clear
2:53 AM 53.1 °F 43.0 °F 69% 29.89 in 10.0 mi NE 12.7 mph - N/A   Clear
3:53 AM 51.1 °F 43.0 °F 74% 29.88 in 10.0 mi NE 11.5 mph - N/A   Clear
4:53 AM 48.9 °F 42.1 °F 77% 29.90 in 10.0 mi ENE 4.6 mph - N/A   Clear
5:53 AM 48.9 °F 43.0 °F 80% 29.91 in 10.0 mi ENE 8.1 mph - N/A   Clear
6:53 AM 53.1 °F 45.0 °F 74% 29.88 in 10.0 mi ENE 5.8 mph - N/A   Clear
7:53 AM 60.1 °F 43.0 °F 53% 29.88 in 10.0 mi NE 13.8 mph - N/A   Clear
8:53 AM 63.0 °F 45.0 °F 52% 29.88 in 10.0 mi ENE 10.4 mph - N/A   Clear
9:53 AM 68.0 °F 42.1 °F 39% 29.87 in 10.0 mi ENE 9.2 mph - N/A   Clear
10:53 AM 73.0 °F 36.0 °F 26% 29.83 in 10.0 mi ESE 8.1 mph - N/A   Clear
11:53 AM 78.1 °F 32.0 °F 19% 29.80 in 10.0 mi Variable 3.5 mph - N/A   Clear
12:53 PM 75.0 °F 25.0 °F 16% 29.79 in 10.0 mi North 5.8 mph 19.6 mph N/A   Partly Cloudy
1:01 PM 75.2 °F 24.8 °F 15% 30.07 in 10.0 mi ENE 3.5 mph - N/A Thunderstorm Mostly Cloudy
1:23 PM 71.6 °F 28.4 °F 20% 30.11 in 10.0 mi Variable 4.6 mph 23.0 mph 0.00 in Rain Light Rain
1:46 PM 64.4 °F 39.2 °F 40% 30.08 in 10.0 mi ESE 5.8 mph 21.9 mph 0.02 in Rain , Thunderstorm Light Rain
1:53 PM 66.0 °F 42.1 °F 42% 29.85 in 10.0 mi East 5.8 mph - 0.02 in Rain , Thunderstorm Light Rain
2:53 PM 71.1 °F 34.0 °F 26% 29.81 in 10.0 mi East 9.2 mph - 0.00 in   Mostly Cloudy
3:14 PM 71.6 °F 30.2 °F 22% 30.06 in 10.0 mi ENE 12.7 mph - N/A Thunderstorm Clear
3:29 PM 73.4 °F 30.2 °F 20% 30.06 in 10.0 mi ENE 15.0 mph 20.7 mph N/A   Clear
3:53 PM 77.0 °F 28.9 °F 17% 29.77 in 10.0 mi NE 13.8 mph 20.7 mph N/A   Clear
4:53 PM 75.0 °F 30.0 °F 19% 29.80 in 10.0 mi ENE 15.0 mph - N/A   Partly Cloudy
5:53 PM 77.0 °F 28.0 °F 17% 29.75 in 10.0 mi ENE 12.7 mph - N/A   Clear
6:53 PM 75.0 °F 28.9 °F 18% 29.74 in 10.0 mi NE 17.3 mph - N/A   Partly Cloudy
7:53 PM 71.1 °F 28.0 °F 20% 29.70 in 10.0 mi East 15.0 mph - N/A   Clear
8:53 PM 68.0 °F 28.0 °F 22% 29.70 in 10.0 mi East 11.5 mph - N/A   Partly Cloudy
9:53 PM 66.0 °F 35.1 °F 32% 29.69 in 10.0 mi East 15.0 mph 24.2 mph N/A   Clear
10:53 PM 61.0 °F 37.0 °F 41% 29.69 in 10.0 mi ENE 9.2 mph - N/A   Clear
11:53 PM 59.0 °F 37.0 °F 44% 29.67 in 10.0 mi East 9.2 mph - N/A   Clear